User: anonymous   Login
Location: ROBOsky.com Wild Flower Ridge Observatory
(43.9736°N, 79.9739°W)
Time: 21:21:57
(UTC-04:00)
Language:

Cosmos 1190 Rocket - Orbit

View from above orbital plane
View from above orbital plane
View from above satellite
View from above satellite

Ground track
Ground track

The orbit data is extracted from the following two-line orbital elements,

1 11870U 80056B   17149.56311402 +.00000056 +00000-0 +27647-4 0  9991
2 11870 074.0533 241.8770 0016687 203.0966 156.9440 14.36852984908291
Epoch (UTC): 29 May 2017 13:30:53
Eccentricity: 0.0016687
inclination: 74.0533°
perigee height: 757 km
apogee height: 781 km
right ascension of ascending node: 241.8770°
argument of perigee: 203.0966°
revolutions per day: 14.36852984
mean anomaly at epoch: 156.9440°
orbit number at epoch: 90829

The dashed part of the orbit path shows where the satellite is in the earth's shadow,  

DLR